GPS BIIRM-6 (PRN 07)

Last updated on Thu Aug 20 2026 00:03:18 GMT+0000 (Coordinated Universal Time)

1 32711U 08012A 26230.95681725 -.00000014 00000+0 00000+0 0 9995 2 32711 54.5017 147.4168 0211227 248.3585 109.4005 2.00551658135010
UTC large
Height (km)
Speed (km/s)
/
Latitude / Longitude
Inclination (degrees)
Orbital Period (minutes)
Azimuth
Elevation
Range (km)
Doppler Factor

Next 0 passes for location: London (51.5072 / 0.1276)

No passes found over London.
GPS BIIRM-6 (PRN 07)